Weather History for Jackson, MS

Change the Weather History Date:

Monday, April 29, 2013

  Actual Average Record
Temperature  
Mean Temperature 71 °F 68 °F  
Max Temperature 81 °F 79 °F 94 °F (1899)
Min Temperature 60 °F 56 °F 40 °F (1965)
Degree Days  
Heating Degree Days 0 1  
Month to date heating degree days 114 107  
Since 1 July heating degree days 2257 2377  
Cooling Degree Days 6 4  
Month to date cooling degree days 87 76  
Year to date cooling degree days 104 113  
Growing Degree Days 20 (Base 50)    
Moisture  
Dew Point 61 °F    
Average Humidity 71    
Maximum Humidity 100    
Minimum Humidity 42    
Precipitation  
Precipitation 0.00 in 0.13 in 4.85 in (1953)
Month to date precipitation 4.62 4.83  
Year to date precipitation 27.65 19.60  
Sea Level Pressure  
Sea Level Pressure 29.96 in    
Wind  
Wind Speed 3 mph (ENE)    
Max Wind Speed 10 mph    
Max Gust Speed 15 mph    
Visibility 5 miles    
Events Fog    
T = Trace of Precipitation, MM = Missing Value Source: NWS Daily Summary

Daily Weather History Graph

Daily Weather History Graph

Search for Another Location

Airport:

Trip Planner

Search our weather history database for the weather conditions in past years. The results will help you decide how hot, cold, wet, or windy it might be!

Date:

Astronomy

Apr. 29, 2013 Rise Set
Actual Time 6:15 AM CDT 7:40 PM CDT
Civil Twilight 5:49 AM CDT 8:06 PM CDT
Nautical Twilight 5:18 AM CDT 8:37 PM CDT
Astronomical Twilight 4:46 AM CDT 9:09 PM CDT
Moon No Moon Rise 9:41 AM CDT (4/29)
Length of Visible Light 14h 16m
Length of Day
13h 24m
Waning Gibbous, 80% of the Moon is Illuminated
Apr 29
Waning Gibbous
May 2
Last Quarter
May 9
New
May 17
First Quarter
May 24
Full

Hourly Weather History & Observations

Time (CDT) Temp. Heat Index Dew Point Humidity Pressure Visibility Wind Dir Wind Speed Gust Speed Precip Events Conditions
12:31 AM 62.6 °F - 62.6 °F 100% 29.98 in 0.5 mi Calm Calm - N/A Fog Fog
12:54 AM 62.1 °F - 61.0 °F 96% 29.97 in 0.5 mi Calm Calm - N/A Fog Fog
1:08 AM 62.6 °F - 62.6 °F 100% 29.98 in 0.2 mi SE 4.6 mph - N/A Fog Fog
1:29 AM 62.6 °F - 62.6 °F 100% 29.97 in 0.5 mi Calm Calm - N/A Fog Fog
1:44 AM 62.6 °F - 62.6 °F 100% 29.97 in 0.2 mi South 3.5 mph - N/A Fog Fog
1:54 AM 63.0 °F - 62.1 °F 97% 29.96 in 0.2 mi SSE 4.6 mph - N/A Fog Fog
2:28 AM 62.6 °F - 62.6 °F 100% 29.96 in 0.5 mi South 3.5 mph - N/A Fog Fog
2:41 AM 62.6 °F - 62.6 °F 100% 29.96 in 1.8 mi SSW 4.6 mph - N/A   Overcast
2:44 AM 62.6 °F - 60.8 °F 94% 29.96 in 3.0 mi South 4.6 mph - N/A   Overcast
2:54 AM 62.1 °F - 61.0 °F 96% 29.95 in 5.0 mi South 3.5 mph - N/A   Overcast
3:54 AM 61.0 °F - 61.0 °F 100% 29.95 in 4.0 mi Calm Calm - N/A   Overcast
4:07 AM 60.8 °F - 60.8 °F 100% 29.96 in 1.8 mi Calm Calm - N/A   Overcast
4:18 AM 62.6 °F - 60.8 °F 94% 29.96 in 0.5 mi Calm Calm - N/A Fog Fog
4:39 AM 60.8 °F - 60.8 °F 100% 29.96 in 0.2 mi Calm Calm - N/A Fog Fog
4:54 AM 61.0 °F - 61.0 °F 100% 29.95 in 0.2 mi Calm Calm - N/A Fog Fog
5:18 AM 60.8 °F - 60.8 °F 100% 29.95 in 0.5 mi Calm Calm - N/A Fog Fog
5:27 AM 60.8 °F - 60.8 °F 100% 29.95 in 0.2 mi Calm Calm - N/A Fog Fog
5:54 AM 61.0 °F - 60.1 °F 97% 29.96 in 0.2 mi Calm Calm - N/A Fog Fog
6:04 AM 60.8 °F - 60.8 °F 100% 29.96 in 0.1 mi Calm Calm - N/A Fog Fog
6:54 AM 60.1 °F - 60.1 °F 100% 29.98 in 0.1 mi Calm Calm - N/A Fog Fog
7:54 AM 61.0 °F - 60.1 °F 97% 30.00 in 0.1 mi Calm Calm - N/A Fog Fog
8:12 AM 62.6 °F - 60.8 °F 94% 30.01 in 1.2 mi Calm Calm - N/A   Overcast
8:20 AM 62.6 °F - 60.8 °F 94% 30.02 in 0.5 mi Calm Calm - N/A   Overcast
8:37 AM 62.6 °F - 60.8 °F 94% 30.02 in 3.0 mi Calm Calm - N/A   Overcast
8:54 AM 64.0 °F - 61.0 °F 90% 30.01 in 10.0 mi Calm Calm - N/A   Mostly Cloudy
9:18 AM 66.2 °F - 60.8 °F 83% 30.01 in 10.0 mi Calm Calm - N/A   Scattered Clouds
9:54 AM 70.0 °F - 62.1 °F 76% 30.00 in 10.0 mi Calm Calm - N/A   Partly Cloudy
10:54 AM 73.0 °F - 63.0 °F 71% 30.01 in 10.0 mi North 5.8 mph - N/A   Scattered Clouds
11:31 AM 73.4 °F - 62.6 °F 69% 30.01 in 10.0 mi NE 8.1 mph - N/A   Mostly Cloudy
11:54 AM 75.0 °F - 64.0 °F 69% 29.99 in 10.0 mi NNE 8.1 mph - N/A   Scattered Clouds
12:54 PM 77.0 °F - 63.0 °F 62% 29.97 in 10.0 mi Variable 6.9 mph - N/A   Scattered Clouds
1:54 PM 79.0 °F - 61.0 °F 54% 29.95 in 10.0 mi Variable 6.9 mph - N/A   Partly Cloudy
2:54 PM 79.0 °F - 60.1 °F 52% 29.93 in 10.0 mi NE 3.5 mph - N/A   Partly Cloudy
3:54 PM 80.1 °F 80.9 °F 60.1 °F 50% 29.91 in 10.0 mi NE 5.8 mph - N/A   Partly Cloudy
4:54 PM 80.1 °F 80.6 °F 57.9 °F 47% 29.89 in 10.0 mi NNW 8.1 mph - N/A   Partly Cloudy
5:54 PM 79.0 °F - 54.0 °F 42% 29.89 in 10.0 mi North 5.8 mph - N/A   Partly Cloudy
6:54 PM 77.0 °F - 57.0 °F 50% 29.89 in 10.0 mi North 3.5 mph - N/A   Partly Cloudy
7:54 PM 68.0 °F - 61.0 °F 78% 29.90 in 10.0 mi Calm Calm - N/A   Partly Cloudy
8:54 PM 64.9 °F - 59.0 °F 81% 29.91 in 10.0 mi ENE 5.8 mph - N/A   Clear
9:54 PM 66.0 °F - 59.0 °F 78% 29.91 in 10.0 mi ENE 5.8 mph - N/A   Clear
10:54 PM 64.0 °F - 60.1 °F 87% 29.92 in 10.0 mi Calm Calm - N/A   Clear
11:54 PM 64.0 °F - 60.1 °F 87% 29.92 in 10.0 mi Calm Calm - N/A   Clear